Find Kosmos-621

NORAD ID: 6989 Int'l Des: 1973-104 Owner: GUKOSR Country: SU operational
LEOCIRCULAR

現在のビュー

3D地球を読み込み中...

About Kosmos-621

Kosmos-621 (NORAD 6989) is a satellite by GUKOSR of SU. It operates in LEO, CIRCULAR orbit

次回通過

Passes for default location (London). Set your location on the main map for personalized predictions.

高度履歴

Loading altitude history...

軌道要素

1 06989U 73104E 26195.65004802 .00000007 00000-0 14193-3 0 9993
2 06989 74.0286 69.3068 0050231 163.8503 259.7840 12.54677739407704
Epoch: Jul 14, 2026 • Age: 7 hours

現在のステータス

高度 1442.3 km
遠地点 / 近地点 N/A
速度 7.15 km/s
衛星直下点 -43.16°S, 1.32°W
タイプ other

Most Searched